Regional Weather Roundup
Issued by NWS Boston, MA

Current Version | Previous Version | Text Only | Print | Product List | Glossary On
Versions: 1 2 3 4 5 6 7 8 9 10 11 12 13 14 15 16 17 18 19 20 21 22 23 24 25 26 27 28 29 30 31 32 33 34 35 36 37 38 39 40 41 42 43 44 45 46 47 48 49 50
000
ASUS41 KBOX 020910
RWRBOX

REGIONAL WEATHER ROUNDUP
NATIONAL WEATHER SERVICE TAUNTON MA
500 AM EDT TUE SEP 02 2014

NOTE:  "FAIR" INDICATES FEW OR NO CLOUDS BELOW 12,000 FEET WITH NO
SIGNIFICANT WEATHER AND/OR OBSTRUCTIONS TO VISIBILITY.  THE FOLLOWING
OBSERVATION LOCATIONS DO NOT REPORT PRESENT WEATHER...PROVINCETOWN...
SMITHFIELD...BLOCK ISLAND...KEENE...AND OXFORD.

MAZALL-021000-
EASTERN MASSACHUSETTS

CITY           SKY/WX    TMP DP  RH WIND       PRES   REMARKS
BOSTON         PTCLDY    72  70  93 S5        29.89S
BEVERLY        PTCLDY    68  66  93 CALM      29.88F FOG
LAWRENCE       CLEAR     70  69  97 S3        29.90F
BEDFORD        CLEAR     70  69  97 SW3       29.88S
BLUE HILL        N/A     70  70 100 S9        29.90F
NORWOOD        PTCLDY    70  69  97 CALM      29.89F FOG
MARSHFIELD     MOCLDY    72  72 100 SW3       29.91S
PLYMOUTH       FOG       69  67  93 CALM      29.91S VSB 1/2
TAUNTON        PTCLDY    70  68  93 CALM      29.89F
NEW BEDFORD    CLOUDY    70  70 100 SE5       29.90F FOG
$$

MAZALL-021000-
CAPE COD AND THE ISLANDS

CITY           SKY/WX    TMP DP  RH WIND       PRES   REMARKS
FALMOUTH       FOG       70  70 100 SW5       29.92S VSB<1/4
HYANNIS        FOG       72  71  97 SW3       29.90F VSB 1/4
CHATHAM        FOG       70  70 100 SW7       29.93S VSB 1/4
PROVINCETOWN   CLEAR     70  68  94 S8        29.91R
NANTUCKET      FOG       69  68  96 SW5       29.93S VSB 1/2
MARTHAS VNYRD  FOG       69  69 100 S5        29.92S VSB 1/4
$$

MAZALL-021000-
CENTRAL AND WESTERN MASSACHUSETTS

CITY           SKY/WX    TMP DP  RH WIND       PRES   REMARKS
WORCESTER      CLEAR     70  68  93 W7        29.92F FOG
FITCHBURG      CLEAR     69  67  93 CALM      29.90S FOG
ORANGE         CLOUDY    69  68  96 CALM      29.90F
SPRINGFIELD    CLEAR     70  68  94 CALM      29.88F FOG
WESTFIELD      FOG       70  68  93 CALM      29.89S VSB 1/4
NORTH ADAMS    CLEAR     66  65  96 CALM      29.90F
PITTSFIELD     FOG       64  64 100 CALM      29.92S VSB 1/4
$$

RIZALL-021000-
RHODE ISLAND

CITY           SKY/WX    TMP DP  RH WIND       PRES   REMARKS
PROVIDENCE     MOCLDY    71  70  96 S6        29.91S FOG
NEWPORT        FOG       71  70  96 S3        29.90F VSB 1/4
BLOCK ISLAND   CLOUDY    72  70  94 SW9       29.92S VSB 1/4
SMITHFIELD     CLEAR     72  64  78 S3        29.91S
WESTERLY       FOG       71  70  96 CALM      29.91S VSB 1/4
$$

CTZALL-021000-
CONNECTICUT

CITY           SKY/WX    TMP DP  RH WIND       PRES   REMARKS
BRADLEY INTL   PTCLDY    73  71  93 S6        29.88F
HARTFORD       CLEAR     73  71  93 CALM      29.88F
BRIDGEPORT     CLEAR     75  73  93 SW3       29.89F
DANBURY        CLEAR     69  66  90 CALM      29.92F
GROTON         CLOUDY    69  69 100 CALM      29.90S FOG
NEW HAVEN      CLEAR     73  70  90 CALM      29.90S
CHESTER        FAIR      72  72 100 CALM      29.92S FOG
MERIDEN        CLOUDY    71  70  96 CALM      29.89F FOG
WILLIMANTIC    CLOUDY    70  69  97 CALM      29.91S FOG
OXFORD         CLEAR     72  68  88 SW3       29.93F
$$

MEZ002-015-021-024-NHZ003-005-008-011-012-014-VTZ005-008-021000-
NORTHERN NEW ENGLAND

CITY           SKY/WX    TMP DP  RH WIND       PRES   REMARKS
PORTLAND ME    FOG       64  63  96 NE5       29.89S VSB 1/2
BANGOR ME      FOG       65  64  97 S6        29.90F VSB 1/4
CONCORD NH     CLOUDY    63  63 100 CALM      29.89S
MANCHESTER NH  CLEAR     70  66  87 CALM      29.87F
NASHUA NH      CLEAR     69  68  97 CALM      29.89F
PORTSMOUTH NH  CLEAR     68  66  96 NE1       29.87F
JAFFREY NH     CLOUDY    66  66 100 S3        29.93  FOG
KEENE NH       CLOUDY    64  55  72 CALM      29.91S
BURLINGTON VT  PTCLDY    73  66  78 S10       29.82F
MT. WASHINGTON FOG       54  54 100 W31         N/A  VSB 0
$$

NYZ052-076-021000-
EASTERN NEW YORK

CITY           SKY/WX    TMP DP  RH WIND       PRES   REMARKS
ALBANY         PTCLDY    73  70  90 S10       29.86F
NEW YORK CITY  CLEAR     79  73  82 SW5       29.89F
$$

ANZALL-021000-
MARINE OBSERVATIONS

STATION/POSITION TIME  TEMP    WIND        PRES    VSBY  WAVE
                       AIR SEA DIR/SP/G                  HT/PER
                 (UTC) (F)     (DEG/KT/KT) (MB)    (MI)  (FT/S)
BOSTON BUOY      0850   69 67  160/  4/  6 1012.1F         1/10
BUZZARDS BAY     0800          190/  8/  8 1013.8F
NANTUCKET SOUND  0850   69 71  220/ 10/ 10 1012.8F         1/ 6
MASS BAY-STELLWA 0804   69 66  180/  4/  4   N/A    1 7/8  1/ 6
ISLE OF SHOALS   0900   71     210/  8/  8 1011.3F
S OF BLOCK IS    0808      69                N/A           3/ 6
$$

......................KEY.........................
  SKY/WX - SKY CONDITION/PRESENT WEATHER
  TMP    - TEMPERATURE IN FAHRENHEIT
  DWPT   - DEWPOINT IN FAHRENHEIT
  RH     - RELATIVE HUMIDITY IN PERCENT
  WIND   - DIRECTION AND SPEED IN MPH
  PRES   - MEAN SEA LEVEL PRESSURE IN INCHES OF HG
  WCI    - WIND CHILL INDEX
  VSB    - VISIBILITY IN MILES
  HX     - HEAT INDEX
  TC     - TEMPERATURE IN CELSIUS
  VRB    - VARIABLE WIND DIRECTION
  N/A    - NOT AVAILABLE



USA.gov is the U.S. government's official web portal to all federal, state and local government web resources and services.